Weather History for Highgate, VT

Change the Weather History Date:

Sunday, May 5, 2013

  Actual Average (KPBG) Record (KPBG)
Temperature  
Mean Temperature 65 °F 53 °F  
Max Temperature 82 °F 64 °F 85 °F (1949)
Min Temperature 49 °F 41 °F 28 °F (1992)
Cooling Degree Days 0 0  
Month to date cooling degree days 0  
Year to date cooling degree days 0  
Growing Degree Days 15 (Base 50)    
Moisture  
Dew Point 36 °F    
Average Humidity 38    
Maximum Humidity 72    
Minimum Humidity 13    
Precipitation  
Precipitation 0.00 in - 0.71 in (1990)
Month to date precipitation  
Year to date precipitation  
Sea Level Pressure  
Sea Level Pressure 30.16 in    
Wind  
Wind Speed 4 mph (SSW)    
Max Wind Speed 9 mph    
Max Gust Speed -    
Visibility 10 miles    
Events      
T = Trace of Precipitation, MM = Missing Value Source: NWS Daily Summary

Daily Weather History Graph

Daily Weather History Graph

Search for Another Location

Airport:

Trip Planner

Search our weather history database for the weather conditions in past years. The results will help you decide how hot, cold, wet, or windy it might be!

Date:

Astronomy

May. 05, 2013 Rise Set
Actual Time 5:35 AM EDT 8:03 PM EDT
Civil Twilight 5:02 AM EDT 8:36 PM EDT
Nautical Twilight 4:22 AM EDT 9:17 PM EDT
Astronomical Twilight 3:35 AM EDT 10:04 PM EDT
Moon 3:16 AM EDT (5/5) 3:49 PM EDT (5/5)
Length of Visible Light 15h 33m
Length of Day
14h 27m
Waning Crescent, 18% of the Moon is Illuminated
May 5
Waning Crescent
May 9
New
May 18
First Quarter
May 25
Full
May 31
Last Quarter

Hourly Weather History & Observations

Time (EDT) Temp. Dew Point Humidity Pressure Visibility Wind Dir Wind Speed Gust Speed Precip Events Conditions
12:15 AM 54.1 °F 44.2 °F 69% 30.19 in 10.0 mi SE 3.5 mph - N/A   Clear
12:35 AM 54.7 °F 43.2 °F 65% 30.19 in 10.0 mi South 4.6 mph - N/A   Clear
12:55 AM 54.5 °F 42.1 °F 63% 30.18 in 10.0 mi Calm Calm - N/A   Clear
1:35 AM 54.5 °F 43.0 °F 65% 30.18 in 10.0 mi SSE 4.6 mph - N/A   Clear
1:55 AM 54.5 °F 43.9 °F 67% 30.18 in 10.0 mi Calm Calm - N/A   Clear
2:15 AM 51.8 °F 42.6 °F 71% 30.18 in 10.0 mi SE 3.5 mph - N/A   Clear
2:35 AM 50.7 °F 41.5 °F 71% 30.18 in 10.0 mi Calm Calm - N/A   Clear
2:55 AM 51.8 °F 42.8 °F 71% 30.18 in 10.0 mi Calm Calm - N/A   Clear
3:15 AM 51.8 °F 43.0 °F 72% 30.18 in 10.0 mi SE 3.5 mph - N/A   Clear
3:35 AM 51.8 °F 42.1 °F 69% 30.19 in 10.0 mi SE 3.5 mph - N/A   Clear
3:55 AM 49.3 °F 40.5 °F 72% 30.19 in 10.0 mi SE 3.5 mph - N/A   Clear
4:15 AM 50.0 °F 40.8 °F 71% 30.19 in 10.0 mi Calm Calm - N/A   Clear
4:35 AM 51.1 °F 38.8 °F 63% 30.18 in 10.0 mi SSE 5.8 mph - N/A   Clear
4:55 AM 54.5 °F 36.5 °F 51% 30.19 in 10.0 mi South 5.8 mph - N/A   Clear
5:15 AM 55.0 °F 34.0 °F 45% 30.19 in 10.0 mi South 5.8 mph - N/A   Clear
5:35 AM 55.6 °F 33.1 °F 43% 30.19 in 10.0 mi South 5.8 mph - N/A   Clear
5:55 AM 56.8 °F 33.3 °F 41% 30.20 in 10.0 mi South 4.6 mph - N/A   Clear
6:15 AM 56.8 °F 33.6 °F 42% 30.20 in 10.0 mi South 4.6 mph - N/A   Clear
6:35 AM 56.8 °F 33.1 °F 41% 30.21 in 10.0 mi South 3.5 mph - N/A   Clear
6:55 AM 57.6 °F 33.8 °F 41% 30.21 in 10.0 mi South 5.8 mph - N/A   Clear
7:15 AM 59.4 °F 34.0 °F 39% 30.21 in 10.0 mi South 8.1 mph - N/A   Clear
7:35 AM 59.4 °F 32.9 °F 37% 30.21 in 10.0 mi South 8.1 mph - N/A   Clear
7:55 AM 60.8 °F 32.7 °F 35% 30.21 in 10.0 mi SSW 9.2 mph - N/A   Clear
8:15 AM 61.9 °F 32.4 °F 33% 30.21 in 10.0 mi South 9.2 mph - N/A   Clear
8:35 AM 62.4 °F 32.0 °F 32% 30.22 in 10.0 mi South 8.1 mph - N/A   Clear
9:15 AM 65.3 °F 33.4 °F 31% 30.22 in 10.0 mi South 8.1 mph - N/A   Clear
9:35 AM 67.1 °F 33.4 °F 29% 30.22 in 10.0 mi South 8.1 mph - N/A   Clear
9:55 AM 69.4 °F 35.2 °F 28% 30.22 in 10.0 mi SSW 6.9 mph - N/A   Clear
10:15 AM 69.4 °F 35.1 °F 28% 30.22 in 10.0 mi South 5.8 mph - N/A   Clear
10:35 AM 69.4 °F 36.9 °F 30% 30.21 in 10.0 mi SW 4.6 mph - N/A   Clear
10:55 AM 69.4 °F 34.9 °F 28% 30.21 in 10.0 mi SW 4.6 mph - N/A   Clear
11:15 AM 70.9 °F 37.4 °F 29% 30.21 in 10.0 mi SW 5.8 mph - N/A   Clear
11:35 AM 72.0 °F 37.8 °F 29% 30.20 in 10.0 mi WSW 5.8 mph - N/A   Clear
12:15 PM 74.5 °F 38.1 °F 27% 30.19 in 10.0 mi WSW 5.8 mph - N/A   Clear
12:35 PM 74.5 °F 37.0 °F 26% 30.19 in 10.0 mi WSW 4.6 mph - N/A   Clear
12:55 PM 74.5 °F 36.3 °F 25% 30.18 in 10.0 mi WSW 5.8 mph - N/A   Clear
1:15 PM 77.0 °F 36.9 °F 23% 30.17 in 10.0 mi SW 6.9 mph - N/A   Clear
1:35 PM 77.0 °F 36.7 °F 23% 30.17 in 10.0 mi SW 5.8 mph - N/A   Clear
1:55 PM 77.0 °F 35.6 °F 22% 30.16 in 10.0 mi WSW 4.6 mph - N/A   Clear
2:15 PM 79.7 °F 35.2 °F 20% 30.16 in 10.0 mi West 4.6 mph - N/A   Clear
2:35 PM 79.7 °F 34.2 °F 19% 30.15 in 10.0 mi Calm Calm - N/A   Clear
2:55 PM 80.2 °F 34.2 °F 19% 30.14 in 10.0 mi WNW 3.5 mph - N/A   Clear
3:15 PM 80.4 °F 34.2 °F 19% 30.14 in 10.0 mi WSW 4.6 mph - N/A   Clear
3:35 PM 81.0 °F 33.8 °F 18% 30.13 in 10.0 mi SW 6.9 mph - N/A   Clear
4:15 PM 80.8 °F 31.3 °F 17% 30.12 in 10.0 mi Calm Calm - N/A   Clear
4:35 PM 81.3 °F 27.0 °F 14% 30.11 in 10.0 mi Calm Calm - N/A   Clear
4:55 PM 80.8 °F 31.8 °F 17% 30.10 in 10.0 mi SSW 4.6 mph - N/A   Clear
5:15 PM 81.0 °F 30.9 °F 16% 30.10 in 10.0 mi SSW 4.6 mph - N/A   Clear
5:35 PM 80.8 °F 30.6 °F 16% 30.10 in 10.0 mi West 3.5 mph - N/A   Clear
5:55 PM 79.7 °F 27.3 °F 15% 30.10 in 10.0 mi West 4.6 mph - N/A   Clear
6:15 PM 79.7 °F 25.0 °F 13% 30.10 in 10.0 mi WSW 5.8 mph - N/A   Clear
6:35 PM 79.5 °F 29.7 °F 16% 30.09 in 10.0 mi SW 4.6 mph - N/A   Clear
6:55 PM 77.0 °F 29.8 °F 18% 30.09 in 10.0 mi Calm Calm - N/A   Clear
7:15 PM 77.0 °F 31.8 °F 19% 30.09 in 10.0 mi Calm Calm - N/A   Clear
7:35 PM 74.5 °F 31.6 °F 21% 30.09 in 3.0 mi Calm Calm - N/A   Haze
7:55 PM 73.8 °F 33.4 °F 23% 30.10 in 10.0 mi Calm Calm - N/A   Clear
8:15 PM 69.4 °F 32.2 °F 25% 30.10 in 10.0 mi Calm Calm - N/A   Clear
8:35 PM 69.4 °F 37.8 °F 31% 30.10 in 10.0 mi Calm Calm - N/A   Clear
8:55 PM 62.4 °F 41.0 °F 45% 30.10 in 10.0 mi Calm Calm - N/A   Clear
9:15 PM 60.6 °F 41.7 °F 50% 30.11 in 10.0 mi SSE 3.5 mph - N/A   Clear
9:35 PM 59.5 °F 41.0 °F 50% 30.11 in 10.0 mi Calm Calm - N/A   Clear
9:55 PM 57.7 °F 41.9 °F 56% 30.11 in 10.0 mi Calm Calm - N/A   Clear
10:15 PM 56.8 °F 42.1 °F 58% 30.12 in 10.0 mi Calm Calm - N/A   Clear
10:35 PM 58.8 °F 41.7 °F 53% 30.13 in 10.0 mi SSE 6.9 mph - N/A   Clear
10:55 PM 66.6 °F 35.1 °F 31% 30.12 in 10.0 mi SSW 5.8 mph - N/A   Clear
11:15 PM 64.4 °F 33.8 °F 32% 30.12 in 10.0 mi South 3.5 mph - N/A   Clear
11:35 PM 62.1 °F 34.2 °F 35% 30.13 in 10.0 mi Calm Calm - N/A   Clear
11:55 PM 56.8 °F 38.8 °F 51% 30.13 in 10.0 mi Calm Calm - N/A   Clear